Time,TemperatureF,DewpointF,PressureIn,WindDirection,WindDirectionDegrees,WindSpeedMPH,WindSpeedGustMPH,Humidity,HourlyPrecipIn,Conditions,Clouds,dailyrainin,SolarRadiationWatts/m^2,SoftwareType,DateUTC
2013-09-10 00:01:00,54.0,53.0,-100.00,ENE,66,1.0,4.0,95,0.00,,,0.00,0.000000,,2013-09-10 07:01:00,
2013-09-10 00:42:00,53.0,52.0,-100.00,East,80,1.0,3.0,95,0.00,,,0.00,0.000000,,2013-09-10 07:42:00,
2013-09-10 00:52:00,53.0,52.0,-100.00,East,80,1.0,3.0,95,0.00,,,0.00,0.000000,,2013-09-10 07:52:00,
2013-09-10 01:02:00,53.0,52.0,-100.00,East,80,1.0,3.0,95,0.00,,,0.00,0.000000,,2013-09-10 08:02:00,
2013-09-10 01:42:00,51.0,50.0,-100.00,ENE,75,1.0,3.0,95,0.00,,,0.00,0.000000,,2013-09-10 08:42:00,
2013-09-10 01:52:00,51.0,50.0,-100.00,ENE,75,1.0,3.0,95,0.00,,,0.00,0.000000,,2013-09-10 08:52:00,
2013-09-10 02:02:00,51.0,50.0,-100.00,ENE,75,1.0,3.0,95,0.00,,,0.00,0.000000,,2013-09-10 09:02:00,
2013-09-10 02:43:00,52.0,51.0,-100.00,NNE,16,1.0,5.0,96,0.00,,,0.00,0.000000,,2013-09-10 09:43:00,
2013-09-10 02:54:00,52.0,51.0,-100.00,NNE,16,1.0,5.0,96,0.00,,,0.00,0.000000,,2013-09-10 09:54:00,
2013-09-10 03:03:00,52.0,51.0,-100.00,NNE,16,1.0,5.0,96,0.00,,,0.00,0.000000,,2013-09-10 10:03:00,
2013-09-10 03:43:00,51.0,50.0,-100.00,ESE,114,1.0,5.0,96,0.00,,,-99.99,0.000000,,2013-09-10 10:43:00,
2013-09-10 03:53:00,51.0,50.0,-100.00,ESE,114,1.0,5.0,96,0.00,,,-99.99,0.000000,,2013-09-10 10:53:00,
2013-09-10 04:03:00,51.0,50.0,-100.00,ESE,114,1.0,5.0,96,0.00,,,-99.99,0.000000,,2013-09-10 11:03:00,
2013-09-10 07:42:00,50.0,48.0,-100.00,NW,310,2.0,8.0,94,0.00,,,0.00,3.000000,,2013-09-10 14:42:00,
2013-09-10 07:52:00,50.0,48.0,-100.00,NW,310,2.0,8.0,94,0.00,,,0.00,3.000000,,2013-09-10 14:52:00,
2013-09-10 08:02:00,50.0,48.0,-100.00,NW,310,2.0,8.0,94,0.00,,,0.00,3.000000,,2013-09-10 15:02:00,
2013-09-10 08:43:00,50.0,48.0,-100.00,North,3,1.0,8.0,94,0.00,,,0.00,20.000000,,2013-09-10 15:43:00,
2013-09-10 09:43:00,54.0,52.0,-100.00,West,275,1.0,5.0,93,-99.99,,,0.00,52.000000,,2013-09-10 16:43:00,
2013-09-10 10:43:00,64.0,55.0,-100.00,SW,224,2.0,9.0,73,-99.99,,,0.00,109.000000,,2013-09-10 17:43:00,
2013-09-10 10:52:00,64.0,55.0,-100.00,SW,224,2.0,9.0,73,-99.99,,,0.00,109.000000,,2013-09-10 17:52:00,
2013-09-10 11:02:00,64.0,55.0,-100.00,SW,224,2.0,9.0,73,-99.99,,,0.00,109.000000,,2013-09-10 18:02:00,
2013-09-10 11:43:00,80.0,48.0,-100.00,NW,325,3.0,18.0,33,0.00,,,0.00,800.000000,,2013-09-10 18:43:00,
2013-09-10 11:52:00,80.0,48.0,-100.00,NW,325,3.0,18.0,33,0.00,,,0.00,800.000000,,2013-09-10 18:52:00,
2013-09-10 12:02:00,80.0,48.0,-100.00,NW,325,3.0,18.0,33,0.00,,,0.00,800.000000,,2013-09-10 19:02:00,
2013-09-10 13:42:00,86.0,46.0,-100.00,East,100,3.0,13.0,25,-99.99,,,0.00,1015.000000,,2013-09-10 20:42:00,
2013-09-10 13:52:00,86.0,46.0,-100.00,East,100,3.0,13.0,25,-99.99,,,0.00,1015.000000,,2013-09-10 20:52:00,
2013-09-10 14:02:00,86.0,46.0,-100.00,East,100,3.0,13.0,25,-99.99,,,0.00,1015.000000,,2013-09-10 21:02:00,
2013-09-10 14:44:00,88.0,46.0,-100.00,WNW,285,2.0,14.0,23,0.00,,,0.00,1005.000000,,2013-09-10 21:44:00,
2013-09-10 15:42:00,90.0,48.0,-100.00,WSW,257,3.0,12.0,24,-99.99,,,0.00,922.000000,,2013-09-10 22:42:00,
2013-09-10 16:42:00,87.0,48.0,-100.00,NW,304,3.0,12.0,26,-99.99,,,0.00,783.000000,,2013-09-10 23:42:00,
2013-09-10 16:53:00,87.0,48.0,-100.00,NW,304,3.0,12.0,26,-99.99,,,0.00,783.000000,,2013-09-10 23:53:00,
2013-09-10 17:02:00,87.0,48.0,-100.00,NW,304,3.0,12.0,26,-99.99,,,0.00,783.000000,,2013-09-11 00:02:00,
2013-09-10 17:42:00,84.0,48.0,-100.00,ESE,123,3.0,12.0,29,0.00,,,0.00,347.000000,,2013-09-11 00:42:00,
2013-09-10 17:52:00,84.0,48.0,-100.00,ESE,123,3.0,12.0,29,0.00,,,0.00,347.000000,,2013-09-11 00:52:00,
2013-09-10 18:01:00,84.0,48.0,-100.00,ESE,123,3.0,12.0,29,0.00,,,0.00,347.000000,,2013-09-11 01:01:00,
2013-09-10 18:42:00,79.0,48.0,-100.00,NNW,344,2.0,10.0,34,0.00,,,0.00,106.000000,,2013-09-11 01:42:00,
2013-09-10 18:53:00,79.0,48.0,-100.00,NNW,344,2.0,10.0,34,0.00,,,0.00,106.000000,,2013-09-11 01:53:00,
2013-09-10 19:02:00,79.0,48.0,-100.00,NNW,344,2.0,10.0,34,0.00,,,0.00,106.000000,,2013-09-11 02:02:00,
2013-09-10 19:43:00,70.0,47.0,-100.00,SW,231,1.0,8.0,44,0.00,,,0.00,30.000000,,2013-09-11 02:43:00,
2013-09-10 19:52:00,70.0,47.0,-100.00,SW,231,1.0,8.0,44,0.00,,,0.00,30.000000,,2013-09-11 02:52:00,
2013-09-10 20:02:00,70.0,47.0,-100.00,SW,231,1.0,8.0,44,0.00,,,0.00,30.000000,,2013-09-11 03:02:00,
2013-09-10 20:54:00,63.0,48.0,-100.00,NNE,32,1.0,8.0,58,0.00,,,0.00,2.000000,,2013-09-11 03:54:00,
2013-09-10 21:04:00,63.0,48.0,-100.00,NNE,32,1.0,8.0,58,0.00,,,0.00,2.000000,,2013-09-11 04:04:00,
2013-09-10 21:44:00,60.0,48.0,-100.00,North,353,1.0,4.0,64,0.00,,,0.00,0.000000,,2013-09-11 04:44:00,
2013-09-10 22:43:00,60.0,50.0,-100.00,NNW,329,1.0,4.0,70,0.00,,,0.00,0.000000,,2013-09-11 05:43:00,
2013-09-10 22:53:00,60.0,50.0,-100.00,NNW,329,1.0,4.0,70,0.00,,,0.00,0.000000,,2013-09-11 05:53:00,
2013-09-10 23:02:00,60.0,50.0,-100.00,NNW,329,1.0,4.0,70,0.00,,,0.00,0.000000,,2013-09-11 06:02:00,
2013-09-10 23:42:00,58.0,49.0,-100.00,ENE,66,1.0,7.0,71,-99.99,,,0.00,0.000000,,2013-09-11 06:42:00,